Norfolk, NE

9:25 AM CDT on September 29, 2016 (GMT -0500)
Stefan Memorial

Weather History for KOFK - February, 2011

Change the Weather History Date:

Thursday, February 3, 2011

  Actual Average Record
Temperature  
Mean Temperature 13 °F 24 °F  
Max Temperature 25 °F 34 °F 68 °F (1962)
Min Temperature 0 °F 13 °F -21 °F (1996)
Degree Days  
Heating Degree Days 52 41  
Month to date heating degree days 178 123  
Since 1 July heating degree days 4266 4145  
Cooling Degree Days 0 0  
Month to date cooling degree days 0 0  
Year to date cooling degree days 0 0  
Moisture  
Dew Point 2 °F    
Average Humidity 60    
Maximum Humidity 69    
Minimum Humidity 50    
Precipitation  
Precipitation 0.00 in 0.02 in 0.60 in (1903)
Month to date precipitation 0.05 0.07  
Year to date precipitation 1.61 0.66  
Snow  
Snow 0.00 in 0.30 in - ()
Month to date snowfall 0.6 0.7  
Since 1 July snowfall 26.6 18.0  
Snow Depth 5.00 in    
Sea Level Pressure  
Sea Level Pressure 30.35 in    
Wind  
Wind Speed 14 mph (SW)    
Max Wind Speed 21 mph    
Max Gust Speed 25 mph    
Visibility 10 miles    
Events      
T = Trace of Precipitation, MM = Missing Value Source: NWS Daily Summary

Daily Weather History Graph

Daily Weather History Graph

Search for Another Location

Airport or City:

Trip Planner

Search our weather history database for the weather conditions in past years. The results will help you decide how hot, cold, wet, or windy it might be!

Date:

Astronomy

Feb. 03, 2011 Rise Set
Actual Time 7:40 AM CST 5:47 PM CST
Civil Twilight 7:11 AM CST 6:16 PM CST
Nautical Twilight 6:37 AM CST 6:49 PM CST
Astronomical Twilight 6:05 AM CST 7:22 PM CST
Moon 7:41 AM CST (2/3) 6:44 PM CST (2/3)
Length of Visible Light 11h 05m
Length of Day
10h 06m
New Moon, 0% of the Moon is Illuminated
Feb 3
New Moon
Feb 11
First Quarter
Feb 18
Full
Feb 24
Last Quarter
Mar 4
New

Hourly Weather History & Observations

Time (CST) Temp. Windchill Dew Point Humidity Pressure Visibility Wind Dir Wind Speed Gust Speed Precip Events Conditions
12:56 AM 3.9 °F -10.4 °F -6.0 °F 64% 30.58 in 10.0 mi WSW 9.2 mph - N/A   Clear
1:56 AM 3.0 °F -13.3 °F -7.1 °F 63% 30.56 in 10.0 mi SW 11.5 mph - N/A   Clear
2:56 AM 3.9 °F -14.3 °F -6.0 °F 64% 30.51 in 10.0 mi SSW 15.0 mph - N/A   Clear
3:56 AM 3.0 °F -14.8 °F -7.1 °F 63% 30.49 in 10.0 mi SSW 13.8 mph - N/A   Clear
4:56 AM 1.0 °F -15.8 °F -9.0 °F 63% 30.48 in 10.0 mi SSW 11.5 mph - N/A   Clear
5:56 AM 1.0 °F -18.7 °F -8.0 °F 66% 30.45 in 10.0 mi SSW 16.1 mph - N/A   Clear
6:56 AM 1.9 °F -17.5 °F -8.0 °F 63% 30.42 in 10.0 mi SSW 16.1 mph - N/A   Clear
7:56 AM 3.0 °F -16.7 °F -8.0 °F 60% 30.41 in 10.0 mi SSW 17.3 mph - N/A   Clear
8:56 AM 6.1 °F -13.8 °F -6.0 °F 58% 30.38 in 10.0 mi SSW 19.6 mph - N/A   Clear
9:56 AM 9.0 °F -9.5 °F -4.0 °F 56% 30.37 in 10.0 mi SSW 18.4 mph - N/A   Clear
10:56 AM 12.9 °F -4.9 °F -0.9 °F 54% 30.34 in 10.0 mi SSW 19.6 mph - N/A   Clear
11:56 AM 17.1 °F 1.5 °F 3.0 °F 54% 30.34 in 10.0 mi SSW 17.3 mph - N/A   Clear
12:56 PM 19.9 °F 6.7 °F 5.0 °F 52% 30.30 in 10.0 mi SW 13.8 mph - N/A   Clear
1:56 PM 21.9 °F 8.2 °F 6.1 °F 51% 30.26 in 10.0 mi WSW 16.1 mph - N/A   Clear
2:56 PM 24.1 °F 12.0 °F 9.0 °F 53% 30.25 in 10.0 mi SW 13.8 mph - N/A   Clear
3:56 PM 25.0 °F 14.8 °F 10.0 °F 53% 30.25 in 10.0 mi WSW 10.4 mph - N/A   Clear
4:56 PM 23.0 °F 13.1 °F 12.0 °F 63% 30.25 in 10.0 mi SW 9.2 mph - N/A   Clear
5:56 PM 19.9 °F 9.3 °F 10.0 °F 65% 30.27 in 10.0 mi SSW 9.2 mph - N/A   Clear
6:56 PM 21.9 °F 8.7 °F 10.0 °F 60% 30.25 in 10.0 mi SSW 15.0 mph - N/A   Clear
7:56 PM 19.9 °F 7.3 °F 10.0 °F 65% 30.25 in 10.0 mi SW 12.7 mph - N/A   Clear
8:56 PM 19.9 °F 7.3 °F 10.0 °F 65% 30.24 in 10.0 mi SW 12.7 mph - N/A   Clear
9:56 PM 19.9 °F 7.3 °F 10.0 °F 65% 30.23 in 10.0 mi SW 12.7 mph - N/A   Clear
10:56 PM 19.0 °F 6.8 °F 10.0 °F 68% 30.22 in 10.0 mi SW 11.5 mph - N/A   Clear
11:56 PM 19.9 °F 7.9 °F 10.0 °F 65% 30.20 in 10.0 mi SW 11.5 mph - N/A   Clear